[[{"header":{"parameterUnit":"m.s-1","parameterCategory":2,"la1":30.2991,"la2":30.254,"lo1":-89.0895,"lo2":-89.0444,"dy":0.0017,"dx":0.0017,"nx":28,"ny":28,"refTime":"2023-07-25T09:00:00:Z","depth":"0","parameterNumber":2,"parameterNumberName":"U-component_of_CURRENTS"},"data":[0,0,0,0,0,0,0,0,0,0,0,0,0,0,0,0,0,0,0,0,0,0,0,0,0,0,0,0,0,0,0,0,0,0,0,0,0,0,0,0,0,0,0,0,0,0,0,0,0,0,0,0,0,0,0,0,0,0,0.2492,0.2493,0,0.2505,0.2505,0.2505,0.2492,0.2492,0.2491,0.2491,0.2525,0.2527,0.2528,0,0,0,0,0,0,0,0,0,0,0,0,0,0.244,0.2441,0.2492,0.2493,0.2493,0.2505,0.2505,0.2505,0.2492,0.2492,0.2491,0.2491,0.2525,0.2526,0.2528,0,0,0,0,0,0,0,0,0,0,0,0,0,0.2457,0.2441,0.2492,0.2489,0.2489,0.2505,0.2505,0.2505,0.2492,0.2492,0.2491,0.2491,0.2524,0.2526,0.2528,0.255,0,0,0.2534,0.2535,0,0,0,0,0,0,0,0,0.2456,0.2459,0.2489,0.2489,0.2489,0.2498,0.2499,0.2522,0.2492,0.2489,0.2491,0.249,0.252,0.2522,0.2523,0.2552,0.2553,0.2534,0.2535,0.2536,0.2536,0,0,0,0,0,0,0,0.2455,0.2458,0.2495,0.249,0.249,0.2482,0.2484,0.2503,0.2506,0.2489,0.2489,0.2493,0.252,0.2521,0.2523,0.2554,0.2534,0.2535,0.2537,0.2537,0.2667,0.2669,0,0,0,0,0,0,0.2459,0.2457,0.2495,0.2496,0.2473,0.2483,0.2485,0.2494,0.2505,0.2507,0.2494,0.2493,0.2518,0.2521,0.2525,0.2594,0.2536,0.2538,0.2539,0.2665,0.2668,0.267,0,0,0,0,0,0,0.2457,0.2462,0.2495,0.2478,0.2482,0.2485,0.2495,0.2495,0.2499,0.2509,0.251,0.2499,0.2518,0.2522,0.2564,0.2593,0.2538,0.254,0.2662,0.2666,0.2669,0.2705,0,0,0,0,0,0,0.2456,0.2462,0.2469,0.2478,0.2483,0.2506,0.2496,0.2496,0.2504,0.2502,0.2514,0.2516,0.2518,0.2561,0.2566,0.2595,0.2542,0.2659,0.2664,0.2668,0.27,0.2709,0.2716,0,0,0,0,0,0.2454,0.2461,0.247,0.2474,0.2494,0.2507,0.2508,0.2507,0.2505,0.2509,0.2532,0.2516,0.2592,0.2565,0.2569,0.2599,0.2657,0.2662,0.2667,0.2697,0.2707,0.2716,0,0,0,0,0,0,0.2443,0.2461,0.247,0.2484,0.2498,0.2505,0.2506,0.2513,0.2532,0.2533,0.2542,0.2547,0.2601,0.26,0.2569,0.2654,0.2624,0.263,0.2645,0.2655,0.2662,0.2656,0.2543,0,0,0,0,0,0.2446,0.2453,0.2476,0.2485,0.2492,0.2503,0.2509,0.2514,0.2532,0.2538,0.2552,0.258,0.2627,0.2638,0.2672,0.2708,0.2731,0.2735,0.2742,0.2749,0.275,0.2815,0.2828,0.2687,0.2687,0.2687,0,0,0.2442,0.2455,0.2458,0.2483,0.2489,0.251,0.2504,0.2514,0.2539,0.2541,0.2576,0.261,0.2648,0.2699,0.2721,0.2697,0.2808,0.2755,0.276,0.2758,0.2821,0.2835,0.2847,0.2691,0.269,0.269,0,0,0.2436,0.2452,0.2456,0.2473,0.2493,0.251,0.2517,0.2536,0.255,0.2595,0.2618,0.2671,0.2714,0.2754,0.2781,0.2853,0.2856,0.2863,0.2883,0.2946,0.2958,0.2968,0.3037,0.3053,0.2855,0.2855,0.2855,0,0.2435,0.2446,0.2459,0.2474,0.2491,0.2513,0.2532,0.2557,0.2591,0.2619,0.2611,0.2723,0.2746,0.2833,0.2858,0.2869,0.2904,0.2839,0.2955,0.2965,0.2975,0.3043,0.306,0.2858,0.2857,0.2857,0.2857,0,0.2435,0.2449,0.2452,0.2485,0.2507,0.2523,0.2566,0.2598,0.2625,0.2657,0.2742,0.2786,0.2851,0.2874,0.2885,0.2976,0.298,0.2964,0.2923,0.2991,0.3059,0.3076,0.2861,0.286,0.2859,0.2859,0,0,0.2431,0.2447,0.2451,0.2463,0.2514,0.253,0.2589,0.2649,0.2697,0.2742,0.2808,0.2894,0.2917,0.295,0.2979,0.3025,0.3133,0.3018,0.302,0.3073,0.3283,0.3349,0.3374,0.313,0.3133,0.3135,0.331,0,0.2432,0.2438,0.2463,0.2493,0.2505,0.2559,0.2612,0.2675,0.2736,0.2806,0.2873,0.2947,0.2948,0.2987,0.3039,0.3117,0.3176,0.3088,0.322,0.3225,0.3264,0.3395,0.3351,0.3507,0.3326,0.3329,0.3331,0,0.2439,0.2439,0.2449,0.2494,0.2507,0.2539,0.2634,0.2688,0.2803,0.2851,0.2939,0.2992,0.3099,0.3071,0.3235,0.3178,0.3235,0.3281,0.3288,0.3345,0.3323,0.3409,0.3545,0.3359,0.3358,0.3355,0.3354,0,0.2418,0.2443,0.2442,0.2456,0.251,0.2541,0.259,0.27,0.2761,0.2888,0.295,0.3069,0.3143,0.3233,0.3343,0.3295,0.3513,0.3459,0.3576,0.358,0.3568,0.3568,0.3527,0.357,0.357,0.357,0.3569,0,0.2414,0.2423,0.2426,0.2427,0.2453,0.2514,0.2579,0.2654,0.2775,0.2867,0.2966,0.3067,0.3184,0.3319,0.3389,0.3569,0.3564,0.3621,0.3646,0.3584,0.3583,0.3438,0.3318,0.3576,0.3575,0.3573,0.3572,0,0.2402,0.2398,0.24,0.2426,0.2437,0.2461,0.2552,0.261,0.2735,0.2864,0.2909,0.3093,0.3294,0.3425,0.36,0.365,0.3693,0.3843,0.3774,0.3788,0.3714,0.3598,0.3529,0.3436,0.4011,0.4014,0.4016,0,0.2409,0.2396,0.2379,0.2369,0.2378,0.2418,0.2453,0.2572,0.2645,0.2889,0.2948,0.3184,0.3354,0.366,0.3827,0.4019,0.3801,0.404,0.3943,0.3745,0.3633,0.3439,0.3348,0.3945,0.3947,0.3948,0.3949,0,0.242,0.2392,0.237,0.2327,0.2333,0.2361,0.2426,0.2477,0.2652,0.2781,0.2988,0.3151,0.3509,0.371,0.3982,0.4088,0.3829,0.4076,0.388,0.3608,0.3384,0.3293,0.3786,0.3961,0.396,0.3959,0.3959,0.3958,0.2438,0.2397,0.2336,0.2303,0.2287,0.2307,0.2339,0.2437,0.256,0.2775,0.2953,0.3187,0.349,0.3902,0.3999,0.4057,0.3959,0.3941,0.3833,0.3666,0.3519,0.406,0.4252,0.4252,0.4253,0.4253,0.4253,0,0.2492,0.2398,0.2332,0.2275,0.224,0.2254,0.232,0.2367,0.2496,0.2708,0.2902,0.3192,0.3445,0.3666,0.3857,0.3777,0.3639,0.3648,0.3309,0.3245,0.3757,0.3694,0.3761,0.3761,0.3761,0.3761,0.3762,0.3762,0.2517,0.2428,0.2353,0.2251,0.2211,0.2209,0.2246,0.2315,0.2436,0.2612,0.2763,0.2915,0.3128,0.3322,0.3342,0.3346,0.303,0.2991,0.2871,0.3155,0.3169,0.3183,0.3095,0.3035,0.3034,0.2298,0.2291,0.2287]},{"header":{"parameterUnit":"m.s-1","parameterCategory":2,"la1":30.2991,"la2":30.254,"lo1":-89.0895,"lo2":-89.0444,"dy":0.0017,"dx":0.0017,"nx":28,"ny":28,"refTime":"2023-07-25T09:00:00:Z","depth":"0","parameterNumber":3,"parameterNumberName":"V-component_of_CURRENTS"},"data":[0,0,0,0,0,0,0,0,0,0,0,0,0,0,0,0,0,0,0,0,0,0,0,0,0,0,0,0,0,0,0,0,0,0,0,0,0,0,0,0,0,0,0,0,0,0,0,0,0,0,0,0,0,0,0,0,0,0,0.0282,0.0282,0,0.024,0.024,0.024,0.0194,0.0193,0.0192,0.0191,0.0087,0.0085,0.0083,0,0,0,0,0,0,0,0,0,0,0,0,0,0.0313,0.0313,0.0282,0.0282,0.0281,0.024,0.024,0.024,0.0194,0.0193,0.0192,0.0191,0.0087,0.0085,0.0083,0,0,0,0,0,0,0,0,0,0,0,0,0,0.029,0.0313,0.0282,0.0251,0.0248,0.024,0.024,0.024,0.0194,0.0193,0.0191,0.019,0.0088,0.0085,0.0082,0.009,0,0,0.0073,0.0072,0,0,0,0,0,0,0,0,0.0292,0.029,0.0257,0.0254,0.025,0.0219,0.0212,0.0186,0.0194,0.0217,0.0191,0.019,0.0125,0.0119,0.0118,0.0085,0.0081,0.0073,0.0071,0.007,0.0069,0,0,0,0,0,0,0,0.0293,0.0291,0.0268,0.0256,0.0252,0.0236,0.0232,0.0208,0.0179,0.0215,0.0211,0.0203,0.0122,0.0121,0.0115,0.0079,0.0073,0.0071,0.0069,0.0068,0.0017,0.0017,0,0,0,0,0,0,0.0296,0.0293,0.0269,0.0266,0.0265,0.0236,0.0232,0.0232,0.0181,0.0171,0.0204,0.0201,0.0126,0.0118,0.0111,0.0108,0.007,0.0067,0.0066,0.0016,0.0017,0.0017,0,0,0,0,0,0,0.0297,0.0295,0.0271,0.0276,0.0272,0.0237,0.0238,0.0232,0.0224,0.0173,0.0163,0.0201,0.0125,0.0115,0.0098,0.0104,0.0066,0.0063,0.0016,0.0016,0.0017,0.0108,0,0,0,0,0,0,0.0298,0.0296,0.0304,0.0277,0.0271,0.028,0.0239,0.0232,0.022,0.0216,0.0167,0.0157,0.0123,0.0103,0.0095,0.0099,0.0061,0.0015,0.0016,0.0017,0.0104,0.0112,0.0118,0,0,0,0,0,0.03,0.0313,0.0305,0.0302,0.0282,0.0281,0.0278,0.0249,0.0222,0.0234,0.0198,0.0158,0.0101,0.0102,0.0092,0.0095,0.0015,0.0016,0.0017,0.0101,0.011,0.0118,0,0,0,0,0,0,0.0331,0.0309,0.0299,0.0306,0.0301,0.0272,0.0276,0.0254,0.0237,0.0226,0.0173,0.0162,0.0147,0.011,0.0112,0.0081,0.0047,0.0047,0.0115,0.0123,0.0129,0.0119,0.0058,0,0,0,0,0,0.0343,0.0347,0.0328,0.0336,0.0333,0.0306,0.0301,0.0284,0.026,0.0251,0.0217,0.0176,0.0146,0.0127,0.0101,0.0089,0.0028,0.008,0.0087,0.0093,0.0078,-0.0008,-0.001,0.002,0.002,0.002,0,0,0.0356,0.0345,0.0347,0.0343,0.0332,0.0339,0.0301,0.0299,0.03,0.0242,0.0235,0.0204,0.015,0.0141,0.0129,0.0108,0.0059,0.0094,0.01,0.0081,-0.0007,-0.001,-0.0013,0.0021,0.0021,0.0021,0,0,0.038,0.0378,0.0386,0.039,0.038,0.0367,0.0368,0.0348,0.0335,0.0334,0.0285,0.0257,0.0222,0.0182,0.0155,0.018,0.0102,0.017,0.019,0.0109,0.0105,0.0101,0.0048,0.0039,0.0168,0.0168,0.0168,0,0.0394,0.0404,0.0392,0.0405,0.0408,0.0381,0.0395,0.0386,0.0364,0.0348,0.0342,0.027,0.0237,0.0192,0.0206,0.0193,0.0139,0.017,0.0117,0.0112,0.0106,0.0052,0.004,0.0172,0.0172,0.0171,0.0171,0,0.0421,0.0436,0.0444,0.0449,0.0458,0.0468,0.0455,0.0455,0.0436,0.0412,0.0378,0.0337,0.0282,0.0276,0.0252,0.0196,0.0171,0.0142,0.0098,0.0108,0.0051,0.0037,0.0179,0.0177,0.0176,0.0175,0,0,0.0424,0.0455,0.0457,0.0474,0.0482,0.0491,0.0498,0.0486,0.0473,0.0452,0.0423,0.0383,0.0342,0.0307,0.0266,0.0203,0.0142,0.0161,0.0155,0.0112,-0.0027,0.0013,0.0001,0.0098,0.0096,0.0094,-0.004,0,0.0444,0.0479,0.049,0.0527,0.0543,0.0539,0.055,0.0538,0.0515,0.0488,0.0423,0.0388,0.0357,0.0334,0.0265,0.0174,0.0103,0.0181,-0.0035,-0.0041,-0.0005,-0.0015,0.0097,-0.0009,-0.0054,-0.0057,-0.0058,0,0.0459,0.048,0.0519,0.0561,0.0568,0.0589,0.059,0.0599,0.0553,0.0532,0.0471,0.0418,0.0336,0.0307,0.0131,0.0181,0.0077,0.0003,-0.0005,-0.0017,-0.0028,-0.0033,-0.0033,-0.0189,-0.0081,-0.0079,-0.0078,0,0.0454,0.0502,0.0533,0.0549,0.0588,0.0603,0.0623,0.0603,0.0608,0.0549,0.0534,0.0421,0.0373,0.0224,0.0099,0.0096,-0.0092,-0.0123,-0.0192,-0.0189,-0.0163,-0.0154,-0.0341,-0.0278,-0.0277,-0.0277,-0.0277,0,0.0465,0.0492,0.0536,0.0554,0.0594,0.062,0.0646,0.0643,0.0632,0.0639,0.0553,0.0529,0.0346,0.0233,0.0094,-0.0069,-0.0106,-0.0199,-0.023,-0.0122,-0.0108,-0.0299,-0.0377,-0.0282,-0.0281,-0.028,-0.0279,0,0.0457,0.0485,0.0525,0.0574,0.0595,0.0624,0.0684,0.0702,0.0687,0.0691,0.0677,0.0587,0.0464,0.0292,0.0067,-0.0059,-0.0284,-0.0284,-0.0121,-0.0131,-0.0336,-0.0411,-0.0616,-0.0664,-0.0401,-0.0401,-0.0401,0,0.0454,0.0474,0.0538,0.0572,0.0599,0.065,0.0694,0.072,0.0747,0.074,0.0747,0.0642,0.0612,0.0323,0.0105,-0.0127,-0.0279,-0.0226,-0.0223,-0.0343,-0.0452,-0.0492,-0.0521,-0.0148,-0.0145,-0.0144,-0.0142,0,0.0451,0.0475,0.0514,0.0583,0.0639,0.0705,0.0773,0.0807,0.0846,0.0887,0.0917,0.09,0.0664,0.0525,0.022,0.0037,-0.0272,-0.0199,-0.0385,-0.0322,-0.0321,-0.0379,-0.0054,-0.0127,-0.0128,-0.013,-0.013,-0.0131,0.0445,0.0478,0.0539,0.0606,0.0679,0.0771,0.086,0.095,0.1054,0.1199,0.1127,0.1248,0.0944,0.0577,0.0284,-0.0151,-0.0191,-0.0279,-0.0374,-0.0417,-0.042,-0.0041,-0.0109,-0.011,-0.0111,-0.0112,-0.0113,0,0.0434,0.0493,0.0564,0.0667,0.0773,0.0803,0.093,0.1065,0.1255,0.1438,0.1556,0.1563,0.1212,0.0761,0.0149,-0.0231,-0.0366,-0.046,-0.0512,-0.0547,-0.0265,-0.0209,-0.0225,-0.0225,-0.0225,-0.0225,-0.0225,-0.0225,0.0438,0.0498,0.0552,0.0729,0.0829,0.1006,0.1107,0.1319,0.1512,0.1849,0.2044,0.2111,0.1709,0.0548,-0.0271,-0.0475,-0.0732,-0.0754,-0.095,-0.0774,-0.0765,-0.0757,-0.0726,-0.085,-0.0851,-0.1129,-0.1133,-0.1135]}],[{"header":{"parameterUnit":"m.s-1","parameterCategory":2,"la1":30.2991,"la2":30.254,"lo1":-89.0895,"lo2":-89.0444,"dy":0.0017,"dx":0.0017,"nx":28,"ny":28,"refTime":"2023-07-25T09:00:00:Z","depth":"2","parameterNumber":2,"parameterNumberName":"U-component_of_CURRENTS"},"data":[0,0,0,0,0,0,0,0,0,0,0,0,0,0,0,0,0,0,0,0,0,0,0,0,0,0,0,0,0,0,0,0,0,0,0,0,0,0,0,0,0,0,0,0,0,0,0,0,0,0,0,0,0,0,0,0,0,0,0.224,0.2241,0,0.2305,0.2305,0.2306,0.233,0.2329,0.2329,0.2329,0.2402,0.2405,0.2407,0,0,0,0,0,0,0,0,0,0,0,0,0,0.217,0.2171,0.224,0.2241,0.2241,0.2304,0.2305,0.2307,0.233,0.2329,0.2329,0.2328,0.2402,0.2404,0.2407,0,0,0,0,0,0,0,0,0,0,0,0,0,0.2215,0.2171,0.224,0.2259,0.2262,0.2304,0.2306,0.2307,0.233,0.2329,0.2329,0.2328,0.2401,0.2404,0.2408,0.244,0,0,0.2418,0.242,0,0,0,0,0,0,0,0,0.2213,0.2218,0.2256,0.2258,0.2261,0.2307,0.2308,0.2351,0.233,0.2306,0.2329,0.2328,0.2371,0.2377,0.2392,0.2444,0.2447,0.2419,0.2421,0.2422,0.2423,0,0,0,0,0,0,0,0.2209,0.2216,0.2267,0.2257,0.2259,0.2276,0.2282,0.2316,0.2342,0.2308,0.2309,0.2314,0.2372,0.2389,0.2394,0.2448,0.2418,0.2422,0.2424,0.2425,0.2558,0.2559,0,0,0,0,0,0,0.2197,0.2213,0.2265,0.2269,0.2233,0.2277,0.2284,0.2294,0.2342,0.2348,0.2314,0.2315,0.2383,0.239,0.2397,0.2484,0.2422,0.2425,0.2427,0.2557,0.2558,0.256,0,0,0,0,0,0,0.2196,0.2202,0.2263,0.224,0.2249,0.2279,0.229,0.2296,0.2312,0.2346,0.2353,0.2324,0.2383,0.2392,0.2438,0.2485,0.2427,0.243,0.2555,0.2557,0.2559,0.2629,0,0,0,0,0,0,0.2193,0.2201,0.2207,0.224,0.225,0.2289,0.2291,0.2297,0.2315,0.2316,0.2357,0.2363,0.2383,0.2432,0.2441,0.2489,0.2433,0.2553,0.2556,0.2559,0.2625,0.2633,0.264,0,0,0,0,0,0.2191,0.2193,0.2207,0.2214,0.2257,0.229,0.2297,0.2317,0.2315,0.2328,0.236,0.2362,0.2456,0.2437,0.2446,0.2496,0.2552,0.2555,0.2558,0.2621,0.2631,0.264,0,0,0,0,0,0,0.2163,0.2197,0.2213,0.2225,0.2258,0.2293,0.2303,0.2317,0.2353,0.2354,0.2382,0.2391,0.2462,0.2457,0.2435,0.254,0.2504,0.251,0.2549,0.2558,0.2566,0.2569,0.2436,0,0,0,0,0,0.2162,0.2175,0.2213,0.2226,0.224,0.2274,0.2289,0.2307,0.2339,0.2353,0.2379,0.2416,0.2484,0.25,0.2549,0.2593,0.2617,0.2629,0.2637,0.2643,0.2652,0.2753,0.2771,0.2571,0.2571,0.2571,0,0,0.2152,0.2175,0.2181,0.2222,0.2247,0.2278,0.2282,0.2308,0.2345,0.2357,0.2405,0.2454,0.2506,0.2577,0.2604,0.2573,0.2708,0.2648,0.2653,0.2658,0.2758,0.2778,0.2796,0.2573,0.2573,0.2572,0,0,0.2139,0.2164,0.2172,0.2206,0.2247,0.2277,0.2283,0.2321,0.235,0.2405,0.2444,0.2512,0.2571,0.2634,0.2674,0.2746,0.2762,0.2755,0.2784,0.2883,0.2901,0.2917,0.2952,0.297,0.274,0.2741,0.2741,0,0.2128,0.2149,0.2179,0.2205,0.2236,0.2275,0.2301,0.2346,0.2395,0.2436,0.2423,0.2573,0.261,0.2735,0.2763,0.2769,0.2803,0.2748,0.2896,0.2912,0.2928,0.296,0.2979,0.2744,0.2744,0.2744,0.2743,0,0.2124,0.2153,0.2162,0.2214,0.2252,0.2281,0.2346,0.2389,0.2426,0.2476,0.2594,0.2657,0.2744,0.2774,0.2794,0.2928,0.2908,0.2912,0.2875,0.2953,0.298,0.3,0.275,0.2748,0.2747,0.2746,0,0,0.2076,0.2144,0.2151,0.2179,0.2262,0.2287,0.237,0.2457,0.2513,0.2586,0.2671,0.2802,0.2837,0.2883,0.2926,0.2999,0.3131,0.2995,0.2999,0.3034,0.3315,0.3066,0.3062,0.3171,0.3176,0.3179,0.3283,0,0.2069,0.2104,0.2154,0.2206,0.2232,0.2317,0.2388,0.248,0.2559,0.2647,0.276,0.2856,0.288,0.2927,0.302,0.3119,0.3189,0.31,0.323,0.3233,0.3008,0.3079,0.2819,0.2869,0.3302,0.3305,0.3307,0,0.2051,0.2083,0.212,0.2207,0.2227,0.2272,0.2397,0.2471,0.2627,0.2692,0.2823,0.2898,0.3053,0.3039,0.3258,0.3203,0.3266,0.3321,0.3327,0.3084,0.302,0.2867,0.2888,0.334,0.3337,0.3335,0.3332,0,0.1991,0.2062,0.2088,0.2119,0.2221,0.2269,0.2339,0.2484,0.2555,0.2728,0.2788,0.2978,0.3069,0.3213,0.3326,0.3315,0.3525,0.3522,0.3355,0.3337,0.3131,0.3085,0.367,0.367,0.3669,0.3669,0.3669,0,0.1965,0.1987,0.2058,0.2075,0.2118,0.2222,0.23,0.2401,0.2551,0.2647,0.2803,0.2902,0.3123,0.3257,0.3357,0.3397,0.3561,0.3368,0.3358,0.3138,0.3093,0.3513,0.3494,0.3673,0.3672,0.3671,0.3671,0,0.1899,0.1944,0.1972,0.2061,0.2087,0.2123,0.225,0.2323,0.2466,0.26,0.2657,0.2879,0.3049,0.3208,0.3429,0.3393,0.348,0.3449,0.3129,0.3075,0.3217,0.32,0.328,0.3272,0.3266,0.326,0.3256,0,0.1866,0.187,0.1932,0.1944,0.1983,0.2051,0.2113,0.2266,0.2357,0.258,0.2646,0.283,0.2924,0.3094,0.3081,0.3143,0.336,0.2932,0.2844,0.32,0.3185,0.3178,0.317,0.2617,0.2608,0.26,0.2594,0,0.1794,0.1811,0.1829,0.1864,0.1908,0.1958,0.2063,0.2103,0.2308,0.2392,0.2535,0.2607,0.2712,0.2636,0.2656,0.2678,0.2889,0.2763,0.3301,0.2705,0.257,0.2555,0.2571,0.2525,0.2532,0.2537,0.2541,0.2543,0.1721,0.1719,0.1744,0.1777,0.182,0.1863,0.1888,0.199,0.2061,0.2152,0.2289,0.2311,0.23,0.2159,0.2153,0.2191,0.2359,0.2338,0.2367,0.2403,0.2257,0.2112,0.1953,0.1957,0.196,0.1962,0.1965,0,0.1636,0.1654,0.1667,0.1696,0.1718,0.1787,0.1859,0.1839,0.1868,0.193,0.1945,0.1713,0.1622,0.1768,0.1642,0.1581,0.1633,0.1624,0.171,0.1774,0.1832,0.1663,0.12,0.1199,0.1197,0.1196,0,0,0.1586,0.1572,0.1595,0.1591,0.163,0.1645,0.1671,0.1587,0.1594,0.1503,0.1497,0.1444,0.1593,0.1307,0.1262,0.1261,0.1531,0.1225,0.1821,0.198,0.2038,0.2202,0.2004,0,0,0,0,0]},{"header":{"parameterUnit":"m.s-1","parameterCategory":2,"la1":30.2991,"la2":30.254,"lo1":-89.0895,"lo2":-89.0444,"dy":0.0017,"dx":0.0017,"nx":28,"ny":28,"refTime":"2023-07-25T09:00:00:Z","depth":"2","parameterNumber":3,"parameterNumberName":"V-component_of_CURRENTS"},"data":[0,0,0,0,0,0,0,0,0,0,0,0,0,0,0,0,0,0,0,0,0,0,0,0,0,0,0,0,0,0,0,0,0,0,0,0,0,0,0,0,0,0,0,0,0,0,0,0,0,0,0,0,0,0,0,0,0,0,0.0485,0.0484,0,0.0421,0.0421,0.0421,0.0345,0.0343,0.0341,0.034,0.0218,0.0216,0.0214,0,0,0,0,0,0,0,0,0,0,0,0,0,0.0539,0.0539,0.0485,0.0484,0.0482,0.0421,0.0421,0.042,0.0345,0.0343,0.0341,0.0339,0.0218,0.0216,0.0214,0,0,0,0,0,0,0,0,0,0,0,0,0,0.0505,0.0539,0.0485,0.0433,0.0428,0.0421,0.0421,0.042,0.0345,0.0343,0.034,0.0338,0.0219,0.0217,0.0214,0.0247,0,0,0.0206,0.0205,0,0,0,0,0,0,0,0,0.0507,0.0504,0.0442,0.0437,0.0431,0.0384,0.0395,0.0358,0.0346,0.0382,0.034,0.0337,0.0266,0.026,0.0262,0.0242,0.0237,0.0206,0.0204,0.0203,0.0203,0,0,0,0,0,0,0,0.0509,0.0506,0.0465,0.0441,0.0434,0.0412,0.0406,0.0388,0.0342,0.0379,0.0372,0.0357,0.0263,0.0264,0.0258,0.0235,0.0206,0.0204,0.0202,0.0201,0.0173,0.0173,0,0,0,0,0,0,0.051,0.0508,0.0467,0.0462,0.0458,0.0413,0.0406,0.0406,0.0343,0.033,0.036,0.0354,0.027,0.0261,0.0253,0.0264,0.0203,0.0201,0.0199,0.0172,0.0173,0.0174,0,0,0,0,0,0,0.0512,0.0508,0.0469,0.0479,0.0471,0.0414,0.0415,0.0405,0.0394,0.0328,0.0314,0.0356,0.0268,0.0257,0.023,0.0259,0.02,0.0197,0.0171,0.0172,0.0173,0.0301,0,0,0,0,0,0,0.0514,0.0509,0.0517,0.0479,0.0471,0.0475,0.0417,0.0406,0.0387,0.0379,0.0321,0.0308,0.0265,0.0235,0.0228,0.0254,0.0195,0.017,0.0172,0.0173,0.0296,0.0306,0.0315,0,0,0,0,0,0.0516,0.0533,0.0519,0.0513,0.0482,0.0476,0.0472,0.0425,0.0389,0.0403,0.035,0.0309,0.0238,0.0234,0.0225,0.0252,0.0169,0.0171,0.0173,0.0291,0.0304,0.0315,0,0,0,0,0,0,0.0558,0.0525,0.0509,0.0514,0.0501,0.0461,0.0462,0.0433,0.0407,0.0389,0.0325,0.031,0.0294,0.0256,0.0252,0.0245,0.0196,0.0196,0.0288,0.03,0.031,0.0335,0.0193,0,0,0,0,0,0.0574,0.0581,0.0547,0.0556,0.0549,0.051,0.0501,0.0473,0.0438,0.0423,0.0377,0.0328,0.0301,0.0285,0.0251,0.0259,0.0216,0.0266,0.0276,0.0285,0.0298,0.0263,0.0271,0.018,0.018,0.018,0,0,0.059,0.0575,0.0576,0.0566,0.0548,0.0562,0.05,0.0493,0.0506,0.0416,0.0412,0.036,0.0308,0.0307,0.0298,0.0277,0.0287,0.0287,0.0295,0.0303,0.0266,0.0275,0.0283,0.0181,0.0181,0.018,0,0,0.0629,0.0616,0.0634,0.0634,0.0614,0.0599,0.06,0.0563,0.0548,0.0546,0.0477,0.0446,0.0406,0.0377,0.0358,0.0405,0.0336,0.0386,0.0465,0.0432,0.0439,0.0445,0.0402,0.0404,0.0396,0.0397,0.0397,0,0.0643,0.067,0.0641,0.0663,0.0672,0.0621,0.0653,0.0643,0.0602,0.0606,0.0557,0.05,0.0448,0.0456,0.0461,0.0432,0.039,0.0429,0.0447,0.0452,0.0456,0.041,0.041,0.0403,0.0402,0.0402,0.0401,0,0.0695,0.0723,0.0735,0.0753,0.0767,0.0785,0.0767,0.0771,0.0741,0.0727,0.0716,0.064,0.0607,0.0585,0.0536,0.0545,0.0499,0.0461,0.0423,0.0473,0.0421,0.0419,0.0412,0.041,0.0408,0.0406,0,0,0.0698,0.076,0.0763,0.0805,0.0818,0.0836,0.0871,0.0896,0.0926,0.0875,0.0906,0.0842,0.0786,0.0759,0.0686,0.0653,0.0638,0.0574,0.057,0.0544,0.0553,0.0479,0.0468,0.06,0.06,0.06,0.0505,0,0.0743,0.0823,0.084,0.0925,0.0966,0.0964,0.1011,0.1028,0.1023,0.1038,0.0968,0.0956,0.0858,0.0834,0.079,0.0682,0.0637,0.0667,0.0497,0.0492,0.0431,0.0465,0.0417,0.0324,0.0502,0.0502,0.0501,0,0.0776,0.0835,0.0926,0.1032,0.1049,0.109,0.1164,0.12,0.1216,0.121,0.1185,0.112,0.107,0.0966,0.0823,0.0843,0.0707,0.0613,0.0606,0.0493,0.0414,0.0301,0.0312,0.0496,0.0497,0.0497,0.0497,0,0.079,0.0894,0.0978,0.1008,0.1107,0.1152,0.12,0.1245,0.1292,0.1306,0.1329,0.1259,0.1213,0.1065,0.0866,0.0841,0.0697,0.0639,0.0443,0.0435,0.034,0.0323,0.0525,0.0525,0.0525,0.0525,0.0525,0,0.0826,0.0891,0.0991,0.1035,0.1139,0.1194,0.1293,0.133,0.1391,0.1463,0.1403,0.1424,0.123,0.1123,0.0927,0.069,0.0742,0.0464,0.0412,0.038,0.037,0.0472,0.0468,0.0522,0.0522,0.0523,0.0524,0,0.0818,0.0882,0.0982,0.1104,0.1144,0.121,0.1341,0.1421,0.1469,0.1556,0.1562,0.1541,0.1404,0.1198,0.0961,0.0765,0.0552,0.0442,0.0415,0.0361,0.0291,0.0294,0.0221,0.0218,0.0215,0.0213,0.0211,0,0.0817,0.0869,0.1011,0.1071,0.1123,0.1233,0.1323,0.1428,0.1525,0.1628,0.1681,0.1594,0.1519,0.1168,0.0821,0.0476,0.049,0.0222,0.0158,0.0307,0.0263,0.0271,0.0277,0.0077,0.0074,0.0072,0.007,0,0.0809,0.0855,0.0936,0.1069,0.1169,0.1305,0.1443,0.1537,0.1675,0.1767,0.1859,0.1803,0.1444,0.1064,0.0597,0.0381,0.028,0.0159,0.0336,0.0163,0.0164,0.0123,0.0136,0.0049,0.0051,0.0053,0.0054,0.0055,0.0775,0.0827,0.0934,0.1059,0.1187,0.136,0.1478,0.1643,0.1809,0.1893,0.1866,0.1714,0.1291,0.0605,0.0321,0.0069,0.0075,-0.0058,-0.0047,-0.0035,-0.0033,-0.0037,-0.019,-0.0189,-0.0188,-0.0188,-0.0187,0,0.0731,0.0806,0.0926,0.1085,0.123,0.1309,0.1553,0.1681,0.1876,0.1842,0.1812,0.1314,0.0856,0.0512,0.0065,-0.0225,-0.0202,-0.0256,-0.0189,-0.017,-0.0153,-0.0151,-0.0342,-0.0343,-0.0343,-0.0343,0,0,0.0703,0.0787,0.0874,0.1076,0.1199,0.1403,0.1544,0.1733,0.1791,0.1767,0.1594,0.1182,0.08,0.0396,0.0051,-0.0109,-0.005,-0.0131,0.0004,0.014,0.0162,-0.005,-0.003,0,0,0,0,0]}],[{"header":{"parameterUnit":"m.s-1","parameterCategory":2,"la1":30.2991,"la2":30.254,"lo1":-89.0895,"lo2":-89.0444,"dy":0.0017,"dx":0.0017,"nx":28,"ny":28,"refTime":"2023-07-25T09:00:00:Z","depth":"4","parameterNumber":2,"parameterNumberName":"U-component_of_CURRENTS"},"data":[0,0,0,0,0,0,0,0,0,0,0,0,0,0,0,0,0,0,0,0,0,0,0,0,0,0,0,0,0,0,0,0,0,0,0,0,0,0,0,0,0,0,0,0,0,0,0,0,0,0,0,0,0,0,0,0,0,0,0.0439,0.0441,0,0.0512,0.0513,0.0513,0.057,0.0571,0.0573,0.0573,0.0693,0.0695,0.0697,0,0,0,0,0,0,0,0,0,0,0,0,0,0.0379,0.0379,0.0439,0.0441,0.0442,0.0512,0.0513,0.0513,0.057,0.0572,0.0573,0.0574,0.0692,0.0695,0.0697,0,0,0,0,0,0,0,0,0,0,0,0,0,0.0419,0.0379,0.0439,0.0483,0.0488,0.0512,0.0513,0.0513,0.057,0.0572,0.0573,0.0575,0.0691,0.0694,0.0698,0.0688,0,0,0.0708,0.0709,0,0,0,0,0,0,0,0,0.0416,0.042,0.0475,0.048,0.0485,0.0538,0.0535,0.0576,0.057,0.0533,0.0573,0.0575,0.0647,0.0654,0.0657,0.0693,0.0698,0.0708,0.071,0.0712,0.0713,0,0,0,0,0,0,0,0.0414,0.0418,0.0463,0.0476,0.0483,0.0509,0.0515,0.0543,0.0578,0.0537,0.0542,0.0558,0.065,0.0653,0.066,0.07,0.0708,0.0711,0.0713,0.0714,0.081,0.0811,0,0,0,0,0,0,0.0411,0.0415,0.0461,0.0466,0.046,0.0509,0.0516,0.0516,0.0577,0.0589,0.0556,0.056,0.0647,0.0656,0.0665,0.0753,0.0712,0.0715,0.0717,0.081,0.081,0.0811,0,0,0,0,0,0,0.0409,0.0414,0.0458,0.0447,0.0455,0.0509,0.0508,0.0516,0.056,0.0592,0.0604,0.0597,0.0649,0.066,0.072,0.0754,0.0716,0.0719,0.0809,0.081,0.0811,0.0867,0,0,0,0,0,0,0.0407,0.0412,0.0444,0.0446,0.0456,0.0487,0.0507,0.0517,0.0568,0.0574,0.063,0.064,0.0651,0.0714,0.0723,0.0758,0.0722,0.0808,0.0809,0.081,0.0864,0.0869,0.0874,0,0,0,0,0,0.0404,0.042,0.0445,0.0453,0.0486,0.0488,0.0494,0.0535,0.0568,0.0581,0.0629,0.0641,0.0726,0.0718,0.0728,0.0765,0.0808,0.0809,0.081,0.0862,0.0868,0.0874,0,0,0,0,0,0,0.041,0.0428,0.0455,0.0479,0.0496,0.05,0.0534,0.0555,0.0601,0.0638,0.0655,0.0667,0.0729,0.0733,0.0723,0.0791,0.0766,0.0769,0.0802,0.0808,0.0813,0.0816,0.0725,0,0,0,0,0,0.0427,0.0448,0.0461,0.0486,0.0499,0.0526,0.0548,0.0577,0.0605,0.063,0.0685,0.0725,0.0732,0.0763,0.0785,0.083,0.0799,0.0855,0.086,0.0864,0.0871,0.0823,0.0824,0.0815,0.0815,0.0815,0,0,0.0442,0.0454,0.0472,0.0492,0.0514,0.054,0.0542,0.0587,0.0626,0.0636,0.074,0.0755,0.0746,0.0793,0.082,0.0811,0.0853,0.0866,0.087,0.0874,0.0824,0.0825,0.0826,0.0816,0.0816,0.0816,0,0,0.0462,0.0487,0.0515,0.0527,0.0575,0.0586,0.0606,0.0655,0.0697,0.0777,0.0779,0.081,0.088,0.0859,0.0851,0.0892,0.0876,0.0914,0.0952,0.0906,0.0906,0.0906,0.0878,0.0875,0.092,0.092,0.0921,0,0.0495,0.0514,0.0524,0.0548,0.0575,0.0608,0.0644,0.0674,0.0753,0.0783,0.083,0.0886,0.0898,0.0877,0.0903,0.0904,0.0886,0.0933,0.0912,0.0911,0.091,0.0881,0.0877,0.0923,0.0923,0.0923,0.0922,0,0.0512,0.0556,0.0566,0.061,0.0638,0.067,0.0708,0.0774,0.085,0.0879,0.0936,0.0949,0.0976,0.0976,0.0966,0.0954,0.0947,0.0919,0.0897,0.0914,0.0883,0.0877,0.0927,0.0926,0.0926,0.0925,0,0,0.0519,0.0573,0.0588,0.0629,0.0678,0.0701,0.0767,0.0812,0.0857,0.0947,0.0986,0.1008,0.1034,0.1023,0.1004,0.0973,0.096,0.0966,0.0962,0.094,0.088,0.0854,0.0845,0.0935,0.0934,0.0933,0.0866,0,0.0543,0.0602,0.0622,0.07,0.0735,0.0777,0.0824,0.088,0.0938,0.0992,0.0987,0.103,0.1037,0.1068,0.1037,0.0972,0.0947,0.0982,0.0867,0.0864,0.0838,0.0838,0.0931,0.0862,0.086,0.0859,0.0859,0,0.0555,0.0597,0.0675,0.0753,0.0773,0.0837,0.0919,0.0965,0.1005,0.1051,0.1079,0.1084,0.1066,0.1073,0.0985,0.1015,0.0972,0.0916,0.0911,0.0863,0.0826,0.0838,0.0848,0.0849,0.085,0.085,0.0851,0,0.0549,0.0635,0.0707,0.073,0.0817,0.0889,0.0952,0.1011,0.104,0.11,0.1126,0.1107,0.1115,0.1048,0.0965,0.0993,0.0837,0.085,0.0776,0.0774,0.0793,0.0794,0.0784,0.0784,0.0785,0.0785,0.0785,0,0.0537,0.0602,0.0732,0.0766,0.0864,0.0934,0.1025,0.1077,0.1126,0.1112,0.1174,0.1114,0.1114,0.1024,0.0955,0.0837,0.083,0.0784,0.0751,0.0821,0.0825,0.079,0.0791,0.0782,0.0783,0.0783,0.0784,0,0.0507,0.0585,0.0676,0.0811,0.0866,0.0951,0.107,0.1098,0.1176,0.1158,0.1181,0.114,0.1037,0.0989,0.0854,0.0826,0.0705,0.0658,0.0735,0.0707,0.069,0.0695,0.0618,0.0616,0.0615,0.0614,0.0613,0,0.0486,0.0536,0.0703,0.0765,0.0845,0.0973,0.1027,0.1124,0.1117,0.1098,0.1042,0.1003,0.0955,0.0756,0.0705,0.0617,0.06,0.0589,0.0668,0.0695,0.067,0.0678,0.0685,0.061,0.061,0.061,0.0609,0,0.0437,0.0523,0.0589,0.0724,0.0826,0.0894,0.098,0.0958,0.0996,0.1069,0.0927,0.0881,0.0763,0.0678,0.0642,0.0545,0.0632,0.0576,0.058,0.0655,0.0686,0.0664,0.0672,0.0605,0.0605,0.0606,0.0606,0,0.0403,0.0438,0.0545,0.0644,0.0756,0.0778,0.0839,0.0831,0.0848,0.085,0.0747,0.069,0.0688,0.0626,0.0514,0.0511,0.0539,0.0572,0.0578,0.0583,0.0605,0.0642,0.0515,0,0,0,0,0,0.0353,0.0371,0.0449,0.0536,0.0635,0.0696,0.0764,0.08,0.0812,0.0717,0.0764,0.0644,0.0578,0.0506,0.0499,0.0484,0.0522,0.0475,0.0559,0.0579,0.0584,0.0616,0,0,0,0,0,0,0.0314,0.0383,0.0401,0.0419,0.0449,0.053,0.0566,0.0585,0.0546,0.0578,0.0527,0.0626,0.0538,0.0561,0.0476,0.0476,0.053,0.0478,0.0478,0.0576,0.0581,0.0585,0.0619,0,0,0,0,0]},{"header":{"parameterUnit":"m.s-1","parameterCategory":2,"la1":30.2991,"la2":30.254,"lo1":-89.0895,"lo2":-89.0444,"dy":0.0017,"dx":0.0017,"nx":28,"ny":28,"refTime":"2023-07-25T09:00:00:Z","depth":"4","parameterNumber":3,"parameterNumberName":"V-component_of_CURRENTS"},"data":[0,0,0,0,0,0,0,0,0,0,0,0,0,0,0,0,0,0,0,0,0,0,0,0,0,0,0,0,0,0,0,0,0,0,0,0,0,0,0,0,0,0,0,0,0,0,0,0,0,0,0,0,0,0,0,0,0,0,-0.012,-0.0121,0,-0.02,-0.0201,-0.0202,-0.0238,-0.0238,-0.0237,-0.0237,-0.0381,-0.0385,-0.0389,0,0,0,0,0,0,0,0,0,0,0,0,0,-0.006,-0.0061,-0.012,-0.0121,-0.0122,-0.02,-0.0201,-0.0203,-0.0238,-0.0238,-0.0237,-0.0237,-0.038,-0.0384,-0.0389,0,0,0,0,0,0,0,0,0,0,0,0,0,-0.0109,-0.0061,-0.012,-0.0148,-0.0151,-0.02,-0.0201,-0.0203,-0.0238,-0.0238,-0.0237,-0.0237,-0.0378,-0.0384,-0.039,-0.0433,0,0,-0.0408,-0.0411,0,0,0,0,0,0,0,0,-0.0106,-0.0111,-0.0143,-0.0146,-0.015,-0.0208,-0.0233,-0.0283,-0.0238,-0.0206,-0.0237,-0.0237,-0.0328,-0.0339,-0.0355,-0.044,-0.0446,-0.0409,-0.0412,-0.0415,-0.0417,0,0,0,0,0,0,0,-0.0102,-0.0108,-0.0153,-0.0144,-0.0148,-0.0178,-0.0185,-0.0243,-0.027,-0.0209,-0.0211,-0.0219,-0.0331,-0.0349,-0.0359,-0.0448,-0.0409,-0.0414,-0.0418,-0.042,-0.0606,-0.0608,0,0,0,0,0,0,-0.0088,-0.0105,-0.015,-0.0155,-0.0126,-0.0179,-0.0186,-0.019,-0.0268,-0.0279,-0.0219,-0.022,-0.0339,-0.0352,-0.0364,-0.045,-0.0415,-0.0421,-0.0424,-0.0605,-0.0607,-0.0608,0,0,0,0,0,0,-0.0086,-0.0091,-0.0147,-0.0131,-0.014,-0.018,-0.0185,-0.0192,-0.0224,-0.0275,-0.0287,-0.0244,-0.0339,-0.0355,-0.0432,-0.0455,-0.0423,-0.0429,-0.0604,-0.0606,-0.0607,-0.0604,0,0,0,0,0,0,-0.0084,-0.009,-0.0108,-0.013,-0.014,-0.0178,-0.0185,-0.0194,-0.0227,-0.023,-0.0301,-0.0313,-0.034,-0.0422,-0.0438,-0.0463,-0.0433,-0.0602,-0.0604,-0.0607,-0.0603,-0.0606,-0.0609,0,0,0,0,0,-0.0081,-0.0092,-0.0109,-0.0115,-0.0158,-0.0179,-0.0188,-0.0216,-0.0229,-0.0244,-0.0298,-0.0311,-0.0448,-0.0429,-0.0446,-0.0474,-0.0601,-0.0604,-0.0607,-0.0601,-0.0605,-0.0609,0,0,0,0,0,0,-0.0079,-0.0098,-0.0116,-0.0134,-0.016,-0.0184,-0.0206,-0.0226,-0.028,-0.0298,-0.0338,-0.0355,-0.0431,-0.0455,-0.0432,-0.0534,-0.0524,-0.053,-0.0514,-0.0518,-0.0521,-0.0494,-0.0438,0,0,0,0,0,-0.0087,-0.01,-0.0123,-0.0142,-0.0153,-0.0186,-0.0207,-0.023,-0.027,-0.0294,-0.035,-0.0407,-0.0456,-0.0488,-0.0544,-0.0604,-0.0597,-0.0631,-0.0634,-0.0636,-0.0626,-0.0642,-0.0645,-0.0618,-0.0618,-0.0618,0,0,-0.0096,-0.0106,-0.0118,-0.0144,-0.0166,-0.0187,-0.0198,-0.0234,-0.0262,-0.0305,-0.0381,-0.0432,-0.0477,-0.0543,-0.0578,-0.0567,-0.0639,-0.064,-0.0641,-0.063,-0.0646,-0.0648,-0.065,-0.062,-0.062,-0.0619,0,0,-0.0102,-0.0123,-0.0135,-0.0152,-0.0188,-0.0207,-0.0218,-0.0268,-0.03,-0.0373,-0.0408,-0.0468,-0.0558,-0.0586,-0.0608,-0.0662,-0.066,-0.0688,-0.0678,-0.0694,-0.0695,-0.0696,-0.0676,-0.0676,-0.0682,-0.0682,-0.0682,0,-0.0116,-0.0127,-0.0145,-0.0155,-0.0173,-0.0212,-0.0233,-0.0268,-0.0345,-0.0375,-0.0399,-0.0524,-0.057,-0.0618,-0.0636,-0.0668,-0.0665,-0.0657,-0.0695,-0.0696,-0.0697,-0.0676,-0.0676,-0.0682,-0.0682,-0.0682,-0.0682,0,-0.012,-0.0141,-0.0145,-0.017,-0.0196,-0.0218,-0.026,-0.0311,-0.0362,-0.0397,-0.0481,-0.0548,-0.0604,-0.0637,-0.0654,-0.0692,-0.0682,-0.07,-0.0677,-0.0699,-0.0676,-0.0676,-0.0682,-0.0682,-0.0682,-0.0682,0,0,-0.0116,-0.0143,-0.0148,-0.0163,-0.0206,-0.0224,-0.0275,-0.0322,-0.035,-0.0439,-0.0475,-0.0566,-0.0596,-0.0622,-0.0661,-0.0681,-0.0689,-0.0692,-0.0693,-0.0656,-0.0699,-0.0659,-0.0655,-0.0716,-0.0717,-0.0717,-0.0672,0,-0.0117,-0.0129,-0.0151,-0.0183,-0.0196,-0.0243,-0.0277,-0.0332,-0.0386,-0.0437,-0.0497,-0.0547,-0.0588,-0.0615,-0.0646,-0.0691,-0.0691,-0.0698,-0.0697,-0.0696,-0.0645,-0.0654,-0.0718,-0.0672,-0.0672,-0.0672,-0.0672,0,-0.0118,-0.0122,-0.0141,-0.0183,-0.0193,-0.0214,-0.0272,-0.0309,-0.0372,-0.0414,-0.0469,-0.0517,-0.0565,-0.0593,-0.0651,-0.0655,-0.0667,-0.0693,-0.0692,-0.0654,-0.0656,-0.0652,-0.067,-0.067,-0.067,-0.0671,-0.0671,0,-0.0096,-0.0126,-0.0136,-0.0146,-0.0191,-0.021,-0.0236,-0.0297,-0.0315,-0.0379,-0.0399,-0.0478,-0.0503,-0.0555,-0.0603,-0.0631,-0.0647,-0.0689,-0.0653,-0.0648,-0.0696,-0.0695,-0.07,-0.07,-0.07,-0.07,-0.07,0,-0.0081,-0.0103,-0.0118,-0.0119,-0.0125,-0.0175,-0.0185,-0.0229,-0.027,-0.0278,-0.0364,-0.0387,-0.0497,-0.0527,-0.0578,-0.0599,-0.0617,-0.064,-0.0639,-0.0695,-0.0695,-0.0694,-0.0694,-0.0698,-0.0699,-0.0699,-0.0699,0,-0.0073,-0.0082,-0.0093,-0.0114,-0.0108,-0.0112,-0.0116,-0.013,-0.0175,-0.0187,-0.0198,-0.0301,-0.036,-0.0435,-0.0509,-0.0545,-0.0581,-0.057,-0.0583,-0.0585,-0.0578,-0.0579,-0.055,-0.0548,-0.0547,-0.0546,-0.0545,0,-0.0072,-0.007,-0.0063,-0.0035,-0.0036,-0.0027,-0.0018,-0.0065,-0.0077,-0.0132,-0.014,-0.02,-0.0268,-0.033,-0.0428,-0.0494,-0.0508,-0.0505,-0.0591,-0.0563,-0.0565,-0.0568,-0.0571,-0.0543,-0.0542,-0.0542,-0.0542,0,-0.0068,-0.0065,-0.0062,0.0018,0.0045,0.005,0.0056,0.0058,-0.0002,-0.002,-0.0077,-0.0143,-0.0202,-0.0312,-0.0339,-0.0399,-0.0515,-0.0492,-0.0497,-0.0577,-0.0554,-0.0558,-0.0562,-0.0537,-0.0537,-0.0538,-0.0538,0,-0.0064,-0.0054,-0.0014,0.0044,0.0109,0.0112,0.0093,0.0075,0.0056,-0.0009,-0.0013,-0.0108,-0.0164,-0.0257,-0.0293,-0.0341,-0.0387,-0.0415,-0.0426,-0.0432,-0.0428,-0.0383,-0.0301,0,0,0,0,0,-0.0044,-0.0027,0.002,0.0057,0.0129,0.0161,0.0143,0.0105,0.0073,0.0051,0.0015,-0.0041,-0.014,-0.0203,-0.0246,-0.0292,-0.0402,-0.0344,-0.044,-0.051,-0.0515,-0.053,0,0,0,0,0,0,-0.0038,0.0009,0.0011,0.0085,0.0138,0.0166,0.0165,0.0109,0.0081,0.0057,-0.0001,-0.0021,-0.0127,-0.0092,-0.0229,-0.025,-0.0314,-0.039,-0.039,-0.0506,-0.0512,-0.0516,-0.0533,0,0,0,0,0]}]]